sat.trackr.live / text

‹ back to catalog

STARLINK-32093

NORAD 59701 · 2024-086V

PAYLOAD ACTIVE UNKNOWN

§ Identity

Operator
Country
US
Launch date
2024-05-08
Launch site
AFETR
Launch vehicle
Mass (kg)
RCS (m²)

Purposes: comms

External: N2YO · Heavens-Above · Gunter

§ Orbital elements

Epoch: 2026-09-21T19:10:04.513440Z

Period
94.27 min
Inclination
43.0020°
Eccentricity
0.0000997
Mean motion
15.27580145 rev/d
Perigee alt
482.4 km
Apogee alt
483.7 km
Semi-major
6,861.2 km
B*
3.6088e-5
RAAN
32.4473°
Arg perigee
264.4539°
Mean anomaly
95.6199°
Rev number
13,410

§ Raw data

STARLINK-320931 59701U 24086V   26264.79866335  .00000731  00000+0  36088-4 0  99982 59701  43.0020  32.4473 0000997 264.4539  95.6199 15.27580145134100

JSON: /api/v1/satellites/59701 · /tle

For live sub-satellite position, see the globe view (requires WebGL).

§ Visibility from observer

Set your observer location to see the next 7 days of passes ≥ 10°. The values pass through the URL so the page stays shareable.

No JS? Fill the form by hand. The geolocation button needs JavaScript.